EW5860 Weather Reports


time (UTC)temp
C
wind
direction
speed
KPH
gust
KPH
rain 1hr
cm
rain 24hr
cm
rain mn
cm
humidity
%
barometer
mb
20260506140051 16 167 3.2 16.1 0.05 0.05 0.05 87 1008.6
20260506134550 17 202 8.0 22.5 0.03 0.03 0.03 85 1008.5
20260506133050 17 213 4.8 12.9 0.00 0.00 0.00 84 1008.5
20260506131547 17 267 3.2 14.5 0.00 0.00 0.00 84 1008.8
20260506130047 17 229 8.0 17.7 0.00 0.00 0.00 82 1008.8
20260506124546 17 198 12.9 27.4 0.00 0.00 0.00 80 1008.9
20260506123041 18 233 11.3 25.7 0.00 0.00 0.00 78 1008.7
20260506121547 18 175 14.5 27.4 0.00 0.00 0.00 77 1008.6
20260506120041 18 166 14.5 30.6 0.00 0.00 0.00 76 1008.3
20260506114541 18 232 12.9 29.0 0.00 0.00 0.00 77 1008.2
20260506113038 18 214 9.7 25.7 0.00 0.00 0.00 77 1008.1
20260506111536 18 203 9.7 27.4 0.00 0.00 0.00 76 1008.0
20260506110037 18 209 12.9 35.4 0.00 0.00 0.00 76 1008.1
20260506104534 18 222 11.3 33.8 0.00 0.00 0.00 76 1007.7
20260506103031 18 213 9.7 37.0 0.00 0.00 0.00 75 1007.6
20260506101530 18 218 14.5 30.6 0.00 0.00 0.00 75 1007.8
20260506100030 18 229 14.5 22.5 0.00 0.00 0.00 74 1007.7
20260506094523 18 254 11.3 35.4 0.00 0.00 0.00 74 1007.8
20260506093022 18 229 11.3 33.8 0.00 0.00 0.00 74 1007.8
20260506091520 18 194 12.9 24.1 0.00 0.00 0.00 74 1007.7
20260506090016 18 212 12.9 24.1 0.00 0.00 0.00 73 1007.9
20260506084517 19 211 14.5 29.0 0.00 0.00 0.00 72 1008.0
20260506083016 19 167 12.9 30.6 0.00 0.00 0.00 71 1008.0
20260506081509 19 214 9.7 24.1 0.00 0.00 0.00 71 1008.0
20260506073006 19 196 9.7 19.3 0.00 0.00 0.00 68 1008.1
20260506071601 19 227 6.4 19.3 0.00 0.00 0.00 67 1008.2
20260506061552 20 212 9.7 29.0 0.00 0.00 0.00 62 1008.8
20260506050104 20 199 3.2 14.5 0.00 0.00 0.00 58 1009.3
20260506044543 20 205 8.0 17.7 0.00 0.00 0.00 58 1009.2
20260506043036 20 209 3.2 17.7 0.00 0.00 0.00 57 1009.2
20260506041549 20 214 3.2 17.7 0.00 0.00 0.00 57 1009.3
20260506040033 20 227 8.0 16.1 0.00 0.00 0.00 57 1009.2
20260506034546 21 209 3.2 14.5 0.00 0.00 0.00 56 1009.2
20260506033031 21 205 6.4 16.1 0.00 0.00 0.00 56 1009.2
20260506031530 21 196 8.0 16.1 0.00 0.00 0.00 55 1009.1
20260506030032 21 188 4.8 19.3 0.00 0.00 0.00 55 1009.1
20260506024530 21 202 6.4 19.3 0.00 0.00 0.00 54 1009.2
20260506023028 21 119 4.8 12.9 0.00 0.00 0.00 53 1009.2
20260506021528 21 217 6.4 16.1 0.00 0.00 0.00 52 1009.2
20260506020027 22 250 3.2 16.1 0.00 0.00 0.00 50 1009.1
20260506014526 22 238 9.7 20.9 0.00 0.00 0.00 49 1009.0
20260506013037 22 206 8.0 19.3 0.00 0.00 0.00 48 1009.0
20260506011527 22 254 3.2 16.1 0.00 0.00 0.00 46 1008.8
20260506010026 23 209 3.2 12.9 0.00 0.00 0.00 45 1008.7
20260506004524 23 242 3.2 12.9 0.00 0.00 0.00 44 1008.5
20260506003024 23 241 1.6 12.9 0.00 0.00 0.00 43 1008.4
20260506001523 24 180 11.3 22.5 0.00 0.00 0.00 42 1008.3
20260506000023 24 173 8.0 16.1 0.00 0.00 0.00 42 1008.1
20260505234522 24 230 3.2 12.9 0.00 0.00 0.00 41 1008.1
20260505233027 25 229 3.2 19.3 0.00 0.00 0.00 41 1007.8
20260505231523 25 211 6.4 12.9 0.00 0.00 0.00 41 1007.8
20260505230021 25 162 3.2 17.7 0.00 0.00 0.00 40 1007.8
20260505224520 25 231 9.7 22.5 0.00 0.00 0.00 38 1007.8
20260505223019 26 238 9.7 27.4 0.00 0.00 0.00 38 1007.9
20260505221519 26 114 14.5 29.0 0.00 0.00 0.00 36 1007.7
20260505220030 26 183 12.9 27.4 0.00 0.00 0.00 36 1007.7
20260505214522 26 217 12.9 30.6 0.00 0.00 0.00 37 1007.6
20260505213017 26 220 12.9 33.8 0.00 0.00 0.00 36 1007.7
20260505211517 26 193 6.4 33.8 0.00 0.00 0.00 37 1007.5
20260505210016 26 120 11.3 33.8 0.00 0.00 0.00 37 1007.5
20260505204515 26 219 11.3 30.6 0.00 0.00 0.00 37 1007.6
20260505203015 26 236 9.7 30.6 0.00 0.00 0.00 38 1007.7
20260505201512 26 217 14.5 27.4 0.00 0.00 0.00 37 1007.8
20260505200016 26 180 16.1 33.8 0.00 0.00 0.00 37 1008.1
20260505194511 26 238 12.9 30.6 0.00 0.00 0.00 37 1008.0
20260505193014 26 184 14.5 29.0 0.00 0.00 0.00 37 1008.1
20260505191521 26 165 9.7 25.7 0.00 0.00 0.00 37 1008.2
20260505190011 26 207 8.0 27.4 0.00 0.00 0.00 36 1008.3
20260505184508 27 180 6.4 29.0 0.00 0.00 0.00 39 1008.4
20260505183007 27 260 9.7 22.5 0.00 0.00 0.00 41 1008.4
20260505181505 26 213 9.7 30.6 0.00 0.00 0.00 41 1008.5
20260505180005 26 177 11.3 25.7 0.00 0.00 0.00 41 1008.9
20260505174505 26 264 12.9 29.0 0.00 0.00 0.00 37 1008.9
20260505173002 26 187 9.7 27.4 0.00 0.00 0.00 39 1008.9
20260505171501 26 172 14.5 30.6 0.00 0.00 0.00 35 1009.0
20260505170058 26 173 9.7 30.6 0.00 0.00 0.00 38 1009.3
20260505164600 26 176 9.7 22.5 0.00 0.00 0.00 40 1009.6
20260505163059 26 178 14.5 25.7 0.00 0.00 0.00 41 1009.8
20260505161602 26 186 9.7 25.7 0.00 0.00 0.00 42 1009.7
20260505153050 25 169 9.7 16.1 0.00 0.00 0.00 43 1010.0
20260505151547 25 251 11.3 22.5 0.00 0.00 0.00 44 1010.1